Location: Gajan
(43.0218°N, 1.1244°E)
Time: 07:07:42
(UTC+00:00)

BREEZE-M DEB (TANK) - Pass Details

Date: 22 April 2021
Orbit: 351 x 16373 km, 49.4° (Epoch: 07 May)

Event Time Altitude Azimuth Distance (km) Brightness Sun altitude
Rises 19:50:42 0° 287° (WNW) 2,175 7.2 -11.6°
Reaches altitude 10° 19:52:34 10° 269° (W) 1,346 5.3 -11.9°
Maximum altitude 19:54:38 23° 212° (SSW) 993 3.6 -12.2°
Enters shadow 19:57:28 11° 160° (SSE) 1,968 4.7 -12.6°
